USA 113

Last updated on Thu Nov 24 2022 00:02:45 GMT+0000 (Coordinated Universal Time)

1 23628U 95038A 22314.73876161 .00000007 00000+0 00000+0 0 9992 2 23628 12.2040 24.0521 0002592 138.8858 232.3612 0.99404774 18434
UTC large
Height (km)
Speed (km/s)
/
Latitude / Longitude
Inclination (degrees)
Orbital Period (minutes)
Azimuth
Elevation
Range (km)
Doppler Factor

Next 0 passes for location: London (51.5072 / 0.1276)

Sorry there are no passes over London.
USA 113